Location: Arrington
(35.8681°N, 86.7092°W)
Time: 11:20:01
(UTC+00:00)

Centaur D-1A AC-31 - Pass Details

Date: 23 November 2019
Orbit: 514 x 36427 km, 27.2° (Epoch: 06 December)

Event Time Altitude Azimuth Distance (km) Brightness Sun altitude
Rises 00:56:00 0° 245° (WSW) 2,664 5.4 -28.2°
Reaches altitude 10° 00:57:36 10° 234° (SW) 1,955 4.3 -28.5°
Enters shadow 01:00:43 37° 174° (S) 1,372 2.7 -29.1°
